Wetterdaten: Woche 13.12.10 - 19.12.10 (KW50)
Datum Zeit Temperatur Luftfeuchte Luftdruck Niederschlag Windrichtung Sonnenschein Solar Wind
13.12.2010 00:00 0,3 C 93 % 1014,7 hPa 0,2 l/m N-NW 0,00 h 0 W/m 5,6 km/h (1 Bft)
13.12.2010 01:00 0,1 C 92 % 1014,8 hPa 0,0 l/m N-NW 0,00 h 0 W/m 7,1 km/h (2 Bft)
13.12.2010 02:00 -0,1 C 92 % 1015,0 hPa 0,0 l/m N-NW 0,00 h 0 W/m 8,6 km/h (2 Bft)
13.12.2010 03:00 -0,3 C 92 % 1015,5 hPa 0,0 l/m N-NW 0,00 h 0 W/m 11,7 km/h (2 Bft)
13.12.2010 04:00 -0,5 C 90 % 1016,0 hPa 0,0 l/m N 0,00 h 0 W/m 13,0 km/h (3 Bft)
13.12.2010 05:00 -1,0 C 87 % 1016,6 hPa 0,0 l/m N-NW 0,00 h 0 W/m 16,0 km/h (3 Bft)
13.12.2010 06:00 -1,4 C 86 % 1017,4 hPa 0,0 l/m N-NO 0,00 h 0 W/m 16,8 km/h (3 Bft)
13.12.2010 07:00 -2,1 C 87 % 1018,4 hPa 0,0 l/m N-NO 0,00 h 0 W/m 17,3 km/h (3 Bft)
13.12.2010 08:00 -3,4 C 91 % 1019,7 hPa 0,0 l/m O-NO 0,00 h 15 W/m 21,2 km/h (4 Bft)
13.12.2010 09:00 -4,2 C 88 % 1020,7 hPa 0,0 l/m NO 0,00 h 47 W/m 16,8 km/h (3 Bft)
13.12.2010 10:00 -4,1 C 83 % 1021,6 hPa 0,0 l/m O-NO 0,08 h 118 W/m 14,5 km/h (3 Bft)
13.12.2010 11:00 -3,7 C 77 % 1021,8 hPa 0,0 l/m NO 0,50 h 214 W/m 11,4 km/h (2 Bft)
13.12.2010 12:00 -3,3 C 71 % 1021,6 hPa 0,0 l/m O-NO 0,67 h 219 W/m 8,6 km/h (2 Bft)
13.12.2010 13:00 -3,4 C 71 % 1021,3 hPa 0,0 l/m NO 1,00 h 284 W/m 7,5 km/h (2 Bft)
13.12.2010 14:00 -3,5 C 69 % 1021,2 hPa 0,0 l/m W-NW 0,83 h 163 W/m 6,0 km/h (2 Bft)
13.12.2010 15:00 -3,8 C 72 % 1021,2 hPa 0,0 l/m W-NW 0,00 h 29 W/m 5,6 km/h (1 Bft)
13.12.2010 16:00 -4,3 C 74 % 1021,5 hPa 0,0 l/m N 0,00 h 9 W/m 2,7 km/h (1 Bft)
13.12.2010 17:00 -5,3 C 78 % 1021,6 hPa 0,0 l/m N 0,00 h 0 W/m 0,4 km/h (0 Bft)
13.12.2010 18:00 -6,3 C 83 % 1021,6 hPa 0,0 l/m N 0,00 h 0 W/m 0,1 km/h (0 Bft)
13.12.2010 19:00 -6,7 C 86 % 1021,6 hPa 0,0 l/m N 0,00 h 0 W/m 0,0 km/h (0 Bft)
13.12.2010 20:00 -6,9 C 87 % 1021,4 hPa 0,0 l/m N 0,00 h 0 W/m 0,8 km/h (0 Bft)
13.12.2010 21:00 -6,7 C 89 % 1021,6 hPa 0,0 l/m N 0,00 h 0 W/m 0,8 km/h (0 Bft)
13.12.2010 22:00 -6,2 C 89 % 1021,5 hPa 0,0 l/m W-NW 0,00 h 0 W/m 2,1 km/h (1 Bft)
13.12.2010 23:00 -6,3 C 89 % 1021,2 hPa 0,0 l/m W-NW 0,00 h 0 W/m 1,5 km/h (1 Bft)
14.12.2010 00:00 -6,3 C 90 % 1020,7 hPa 0,0 l/m W-NW 0,00 h 0 W/m 4,4 km/h (1 Bft)
14.12.2010 01:00 -6,2 C 90 % 1020,6 hPa 0,0 l/m N 0,00 h 0 W/m 3,6 km/h (1 Bft)
14.12.2010 02:00 -6,0 C 91 % 1020,6 hPa 0,0 l/m SW 0,00 h 0 W/m 5,5 km/h (1 Bft)
14.12.2010 03:00 -6,0 C 92 % 1020,6 hPa 0,0 l/m SW 0,00 h 0 W/m 2,7 km/h (1 Bft)
14.12.2010 04:00 -5,8 C 92 % 1020,7 hPa 0,0 l/m SW 0,00 h 0 W/m 2,3 km/h (1 Bft)
14.12.2010 05:00 -6,1 C 92 % 1020,8 hPa 0,0 l/m N 0,00 h 0 W/m 0,3 km/h (0 Bft)
14.12.2010 06:00 -6,6 C 92 % 1021,3 hPa 0,0 l/m N 0,00 h 0 W/m 0,4 km/h (0 Bft)
14.12.2010 07:00 -7,2 C 92 % 1021,9 hPa 0,0 l/m N 0,00 h 0 W/m 1,3 km/h (1 Bft)
14.12.2010 08:00 -7,7 C 92 % 1022,9 hPa 0,0 l/m N 0,00 h 17 W/m 0,0 km/h (0 Bft)
14.12.2010 09:00 -7,3 C 94 % 1023,5 hPa 0,0 l/m N 0,00 h 65 W/m 1,2 km/h (1 Bft)
14.12.2010 10:00 -6,0 C 91 % 1024,0 hPa 0,0 l/m O-NO 0,00 h 68 W/m 3,9 km/h (1 Bft)
14.12.2010 11:00 -4,9 C 84 % 1024,3 hPa 0,0 l/m O 0,42 h 160 W/m 6,4 km/h (2 Bft)
14.12.2010 12:00 -4,0 C 82 % 1024,3 hPa 0,0 l/m N 0,50 h 184 W/m 6,5 km/h (2 Bft)
14.12.2010 13:00 -3,7 C 80 % 1024,5 hPa 0,0 l/m N 0,75 h 209 W/m 7,8 km/h (2 Bft)
14.12.2010 14:00 -4,2 C 79 % 1024,9 hPa 0,0 l/m N 0,67 h 138 W/m 8,7 km/h (2 Bft)
14.12.2010 15:00 -4,4 C 77 % 1025,3 hPa 0,0 l/m N 0,00 h 29 W/m 6,5 km/h (2 Bft)
14.12.2010 16:00 -4,8 C 80 % 1026,1 hPa 0,0 l/m N-NO 0,00 h 10 W/m 6,4 km/h (2 Bft)
14.12.2010 17:00 -5,0 C 81 % 1026,4 hPa 0,0 l/m N 0,00 h 0 W/m 5,8 km/h (1 Bft)
14.12.2010 18:00 -5,3 C 82 % 1026,8 hPa 0,0 l/m N 0,00 h 0 W/m 0,9 km/h (0 Bft)
14.12.2010 19:00 -5,4 C 83 % 1027,0 hPa 0,0 l/m N 0,00 h 0 W/m 1,1 km/h (0 Bft)
14.12.2010 20:00 -5,5 C 83 % 1027,2 hPa 0,0 l/m N 0,00 h 0 W/m 2,3 km/h (1 Bft)
14.12.2010 21:00 -5,7 C 86 % 1027,5 hPa 0,0 l/m N 0,00 h 0 W/m 3,1 km/h (1 Bft)
14.12.2010 22:00 -5,9 C 88 % 1027,5 hPa 0,0 l/m N-NW 0,00 h 0 W/m 4,8 km/h (1 Bft)
14.12.2010 23:00 -6,1 C 88 % 1027,4 hPa 0,0 l/m N 0,00 h 0 W/m 3,2 km/h (1 Bft)
15.12.2010 00:00 -6,4 C 88 % 1027,4 hPa 0,0 l/m N 0,00 h 0 W/m 1,6 km/h (1 Bft)
15.12.2010 01:00 -6,3 C 89 % 1027,3 hPa 0,0 l/m N 0,00 h 0 W/m 3,7 km/h (1 Bft)
15.12.2010 02:00 -6,2 C 90 % 1027,2 hPa 0,0 l/m NW 0,00 h 0 W/m 3,3 km/h (1 Bft)
15.12.2010 03:00 -6,0 C 90 % 1027,2 hPa 0,0 l/m W-NW 0,00 h 0 W/m 4,5 km/h (1 Bft)
15.12.2010 04:00 -5,9 C 91 % 1027,0 hPa 0,0 l/m W-NW 0,00 h 0 W/m 5,1 km/h (1 Bft)
15.12.2010 05:00 -5,8 C 91 % 1027,0 hPa 0,0 l/m W-NW 0,00 h 0 W/m 6,4 km/h (2 Bft)
15.12.2010 06:00 -5,9 C 91 % 1026,9 hPa 0,0 l/m W-NW 0,00 h 0 W/m 5,5 km/h (1 Bft)
15.12.2010 07:00 -5,9 C 90 % 1027,1 hPa 0,0 l/m W-NW 0,00 h 0 W/m 6,6 km/h (2 Bft)
15.12.2010 08:00 -5,9 C 89 % 1027,4 hPa 0,0 l/m W-NW 0,00 h 7 W/m 6,7 km/h (2 Bft)
15.12.2010 09:00 -5,7 C 88 % 1027,4 hPa 0,0 l/m W 0,00 h 20 W/m 6,5 km/h (2 Bft)
15.12.2010 10:00 -5,1 C 84 % 1027,4 hPa 0,2 l/m W-NW 0,00 h 38 W/m 10,7 km/h (2 Bft)
15.12.2010 11:00 -5,0 C 80 % 1027,2 hPa 0,0 l/m W-NW 0,00 h 41 W/m 14,5 km/h (3 Bft)
15.12.2010 12:00 -5,4 C 84 % 1026,7 hPa 0,0 l/m W-NW 0,00 h 45 W/m 14,2 km/h (3 Bft)
15.12.2010 13:00 -5,4 C 83 % 1026,0 hPa 0,0 l/m W-NW 0,00 h 37 W/m 11,5 km/h (2 Bft)
15.12.2010 14:00 -5,7 C 86 % 1025,5 hPa 0,0 l/m W-SW 0,00 h 21 W/m 7,7 km/h (2 Bft)
15.12.2010 15:00 -5,9 C 88 % 1025,1 hPa 0,2 l/m SW 0,00 h 11 W/m 12,4 km/h (3 Bft)
15.12.2010 16:00 -6,1 C 88 % 1025,0 hPa 0,0 l/m W-SW 0,00 h 0 W/m 12,4 km/h (3 Bft)
15.12.2010 17:00 -6,3 C 90 % 1024,7 hPa 0,0 l/m SW 0,00 h 0 W/m 11,0 km/h (2 Bft)
15.12.2010 18:00 -6,2 C 92 % 1024,3 hPa 0,0 l/m W-SW 0,00 h 0 W/m 9,1 km/h (2 Bft)
15.12.2010 19:00 -6,1 C 90 % 1023,9 hPa 0,2 l/m W-SW 0,00 h 0 W/m 11,6 km/h (2 Bft)
15.12.2010 20:00 -6,3 C 89 % 1023,8 hPa 0,0 l/m W-SW 0,00 h 0 W/m 12,6 km/h (3 Bft)
15.12.2010 21:00 -6,3 C 90 % 1023,5 hPa 0,6 l/m SW 0,00 h 0 W/m 10,3 km/h (2 Bft)
15.12.2010 22:00 -6,3 C 91 % 1023,4 hPa 0,4 l/m SW 0,00 h 0 W/m 7,6 km/h (2 Bft)
15.12.2010 23:00 -6,4 C 91 % 1023,0 hPa 0,2 l/m SW 0,00 h 0 W/m 7,8 km/h (2 Bft)
16.12.2010 00:00 -6,4 C 91 % 1022,4 hPa 0,4 l/m SW 0,00 h 0 W/m 6,3 km/h (2 Bft)
16.12.2010 01:00 -6,4 C 91 % 1021,8 hPa 0,2 l/m N 0,00 h 0 W/m 2,8 km/h (1 Bft)
16.12.2010 02:00 -6,7 C 91 % 1021,2 hPa 0,2 l/m N 0,00 h 0 W/m 0,3 km/h (0 Bft)
16.12.2010 03:00 -7,8 C 88 % 1021,0 hPa 0,0 l/m N 0,00 h 0 W/m 0,0 km/h (0 Bft)
16.12.2010 04:00 -8,4 C 90 % 1020,5 hPa 0,0 l/m N 0,00 h 0 W/m 0,1 km/h (0 Bft)
16.12.2010 05:00 -8,0 C 93 % 1020,4 hPa 0,2 l/m N 0,00 h 0 W/m 0,4 km/h (0 Bft)
16.12.2010 06:00 -8,0 C 92 % 1020,0 hPa 0,0 l/m N 0,00 h 0 W/m 2,0 km/h (1 Bft)
16.12.2010 07:00 -8,8 C 90 % 1019,6 hPa 0,0 l/m N 0,00 h 0 W/m 1,2 km/h (1 Bft)
16.12.2010 08:00 -10,0 C 90 % 1019,5 hPa 0,0 l/m W-SW 0,00 h 7 W/m 2,7 km/h (1 Bft)
16.12.2010 09:00 -9,8 C 93 % 1018,9 hPa 0,0 l/m SW 0,00 h 16 W/m 6,3 km/h (2 Bft)
16.12.2010 10:00 -8,1 C 94 % 1018,5 hPa 0,0 l/m S-SW 0,00 h 31 W/m 8,3 km/h (2 Bft)
16.12.2010 11:00 -6,4 C 91 % 1017,6 hPa 0,0 l/m SW 0,00 h 45 W/m 9,9 km/h (2 Bft)
16.12.2010 12:00 -5,7 C 85 % 1016,3 hPa 0,0 l/m W 0,00 h 54 W/m 16,6 km/h (3 Bft)
16.12.2010 13:00 -5,2 C 83 % 1014,6 hPa 0,0 l/m SW 0,00 h 37 W/m 19,4 km/h (3 Bft)
16.12.2010 14:00 -4,9 C 84 % 1013,7 hPa 0,0 l/m W 0,00 h 19 W/m 17,7 km/h (3 Bft)
16.12.2010 15:00 -5,1 C 85 % 1012,5 hPa 0,0 l/m SW 0,00 h 10 W/m 19,6 km/h (3 Bft)
16.12.2010 16:00 -5,4 C 84 % 1011,7 hPa 0,0 l/m SW 0,00 h 0 W/m 18,1 km/h (3 Bft)
16.12.2010 17:00 -5,8 C 86 % 1010,2 hPa 0,0 l/m SW 0,00 h 0 W/m 16,2 km/h (3 Bft)
16.12.2010 18:00 -5,7 C 88 % 1008,5 hPa 0,0 l/m W-SW 0,00 h 0 W/m 22,0 km/h (4 Bft)
16.12.2010 19:00 -5,3 C 87 % 1007,1 hPa 0,0 l/m W-SW 0,00 h 0 W/m 23,0 km/h (4 Bft)
16.12.2010 20:00 -4,7 C 84 % 1005,8 hPa 0,0 l/m SW 0,00 h 0 W/m 20,8 km/h (4 Bft)
16.12.2010 21:00 -4,3 C 85 % 1004,4 hPa 0,0 l/m SW 0,00 h 0 W/m 21,2 km/h (4 Bft)
16.12.2010 22:00 -4,3 C 90 % 1003,1 hPa 0,0 l/m S-SW 0,00 h 0 W/m 21,6 km/h (4 Bft)
16.12.2010 23:00 -4,2 C 93 % 1001,5 hPa 0,0 l/m SW 0,00 h 0 W/m 22,4 km/h (4 Bft)
17.12.2010 00:00 -4,5 C 94 % 999,8 hPa 0,0 l/m SW 0,00 h 0 W/m 19,7 km/h (3 Bft)
17.12.2010 01:00 -4,7 C 94 % 998,2 hPa 0,0 l/m SW 0,00 h 0 W/m 22,2 km/h (4 Bft)
17.12.2010 02:00 -4,7 C 95 % 996,9 hPa 0,0 l/m SW 0,00 h 0 W/m 20,8 km/h (4 Bft)
17.12.2010 03:00 -4,6 C 95 % 995,8 hPa 0,4 l/m SW 0,00 h 0 W/m 17,7 km/h (3 Bft)
17.12.2010 04:00 -3,9 C 96 % 994,6 hPa 0,4 l/m SW 0,00 h 0 W/m 13,3 km/h (3 Bft)
17.12.2010 05:00 -3,2 C 96 % 993,4 hPa 0,4 l/m W-SW 0,00 h 0 W/m 11,4 km/h (2 Bft)
17.12.2010 06:00 -2,4 C 97 % 992,5 hPa 0,2 l/m SW 0,00 h 0 W/m 12,1 km/h (2 Bft)
17.12.2010 07:00 -2,1 C 97 % 991,8 hPa 0,2 l/m SW 0,00 h 0 W/m 14,1 km/h (3 Bft)
17.12.2010 08:00 -1,9 C 97 % 991,4 hPa 0,6 l/m SW 0,00 h 0 W/m 14,5 km/h (3 Bft)
17.12.2010 09:00 -1,4 C 97 % 991,7 hPa 0,6 l/m SW 0,00 h 7 W/m 13,4 km/h (3 Bft)
17.12.2010 10:00 -1,1 C 96 % 992,8 hPa 0,8 l/m N-NW 0,00 h 11 W/m 11,7 km/h (2 Bft)
17.12.2010 11:00 -1,6 C 93 % 993,8 hPa 0,4 l/m N 0,00 h 16 W/m 13,0 km/h (3 Bft)
17.12.2010 12:00 -2,1 C 88 % 995,1 hPa 0,2 l/m N-NW 0,00 h 28 W/m 16,6 km/h (3 Bft)
17.12.2010 13:00 -2,4 C 85 % 995,3 hPa 0,2 l/m N 0,00 h 30 W/m 14,2 km/h (3 Bft)
17.12.2010 14:00 -2,7 C 82 % 995,8 hPa 0,0 l/m N-NW 0,00 h 18 W/m 9,1 km/h (2 Bft)
17.12.2010 15:00 -3,2 C 82 % 996,6 hPa 0,0 l/m N-NW 0,00 h 8 W/m 5,1 km/h (1 Bft)
17.12.2010 16:00 -3,9 C 82 % 997,3 hPa 0,0 l/m N 0,00 h 5 W/m 2,0 km/h (1 Bft)
17.12.2010 17:00 -5,0 C 85 % 997,5 hPa 0,0 l/m N 0,00 h 0 W/m 0,7 km/h (0 Bft)
17.12.2010 18:00 -5,9 C 88 % 997,9 hPa 0,0 l/m N 0,00 h 0 W/m 0,7 km/h (0 Bft)
17.12.2010 19:00 -6,3 C 90 % 998,5 hPa 0,0 l/m SW 0,00 h 0 W/m 1,5 km/h (1 Bft)
17.12.2010 20:00 -6,4 C 92 % 998,9 hPa 0,0 l/m N 0,00 h 0 W/m 0,9 km/h (0 Bft)
17.12.2010 21:00 -6,5 C 92 % 999,2 hPa 0,0 l/m N 0,00 h 0 W/m 0,0 km/h (0 Bft)
17.12.2010 22:00 -6,8 C 92 % 999,3 hPa 0,0 l/m N 0,00 h 0 W/m 0,0 km/h (0 Bft)
17.12.2010 23:00 -6,7 C 93 % 999,6 hPa 0,0 l/m N 0,00 h 0 W/m 0,0 km/h (0 Bft)
18.12.2010 00:00 -6,8 C 93 % 999,4 hPa 0,0 l/m N 0,00 h 0 W/m 0,0 km/h (0 Bft)
18.12.2010 01:00 -7,3 C 92 % 999,3 hPa 0,0 l/m N 0,00 h 0 W/m 0,0 km/h (0 Bft)
18.12.2010 02:00 -8,6 C 90 % 999,5 hPa 0,0 l/m N 0,00 h 0 W/m 0,3 km/h (0 Bft)
18.12.2010 03:00 -9,1 C 93 % 999,8 hPa 0,0 l/m W-SW 0,00 h 0 W/m 2,8 km/h (1 Bft)
18.12.2010 04:00 -7,4 C 96 % 999,9 hPa 0,0 l/m SW 0,00 h 0 W/m 4,8 km/h (1 Bft)
18.12.2010 05:00 -6,9 C 95 % 1000,1 hPa 0,0 l/m SW 0,00 h 0 W/m 1,5 km/h (1 Bft)
18.12.2010 06:00 -6,9 C 95 % 1000,3 hPa 0,0 l/m SW 0,00 h 0 W/m 7,4 km/h (2 Bft)
18.12.2010 07:00 -7,1 C 95 % 1000,4 hPa 0,0 l/m SW 0,00 h 0 W/m 11,0 km/h (2 Bft)
18.12.2010 08:00 -6,3 C 95 % 1001,0 hPa 0,0 l/m SW 0,00 h 10 W/m 12,9 km/h (3 Bft)
18.12.2010 09:00 -5,4 C 93 % 1001,7 hPa 0,0 l/m SW 0,00 h 16 W/m 12,1 km/h (2 Bft)
18.12.2010 10:00 -4,5 C 92 % 1002,1 hPa 0,0 l/m SW 0,00 h 29 W/m 12,0 km/h (2 Bft)
18.12.2010 11:00 -3,7 C 87 % 1002,1 hPa 0,0 l/m W-SW 0,00 h 35 W/m 21,6 km/h (4 Bft)
18.12.2010 12:00 -3,3 C 86 % 1002,4 hPa 0,0 l/m W-SW 0,00 h 34 W/m 18,0 km/h (3 Bft)
18.12.2010 13:00 -2,9 C 84 % 1002,3 hPa 0,2 l/m W-SW 0,00 h 52 W/m 18,0 km/h (3 Bft)
18.12.2010 14:00 -3,0 C 84 % 1002,6 hPa 0,0 l/m W-SW 0,00 h 37 W/m 13,9 km/h (3 Bft)
18.12.2010 15:00 -3,4 C 85 % 1003,2 hPa 0,0 l/m W-SW 0,00 h 13 W/m 16,5 km/h (3 Bft)
18.12.2010 16:00 -3,7 C 85 % 1003,6 hPa 0,0 l/m SW 0,00 h 7 W/m 11,4 km/h (2 Bft)
18.12.2010 17:00 -4,5 C 85 % 1003,9 hPa 0,0 l/m SW 0,00 h 0 W/m 6,7 km/h (2 Bft)
18.12.2010 18:00 -5,0 C 87 % 1004,0 hPa 0,0 l/m SW 0,00 h 0 W/m 5,4 km/h (1 Bft)
18.12.2010 19:00 -5,9 C 87 % 1004,1 hPa 0,0 l/m S 0,00 h 0 W/m 3,3 km/h (1 Bft)
18.12.2010 20:00 -7,3 C 86 % 1004,0 hPa 0,0 l/m N 0,00 h 0 W/m 0,0 km/h (0 Bft)
18.12.2010 21:00 -8,8 C 87 % 1003,9 hPa 0,0 l/m N 0,00 h 0 W/m 0,0 km/h (0 Bft)
18.12.2010 22:00 -9,7 C 88 % 1003,6 hPa 0,0 l/m N 0,00 h 0 W/m 0,0 km/h (0 Bft)
18.12.2010 23:00 -9,9 C 90 % 1003,3 hPa 0,0 l/m N 0,00 h 0 W/m 0,0 km/h (0 Bft)
19.12.2010 00:00 -9,6 C 92 % 1002,7 hPa 0,0 l/m N 0,00 h 0 W/m 0,0 km/h (0 Bft)
19.12.2010 01:00 -9,0 C 93 % 1001,8 hPa 0,0 l/m N 0,00 h 0 W/m 0,0 km/h (0 Bft)
19.12.2010 02:00 -8,1 C 94 % 1001,6 hPa 0,0 l/m N 0,00 h 0 W/m 1,5 km/h (1 Bft)
19.12.2010 03:00 -7,0 C 93 % 1001,7 hPa 0,0 l/m S-SW 0,00 h 0 W/m 2,3 km/h (1 Bft)
19.12.2010 04:00 -6,4 C 90 % 1001,8 hPa 0,0 l/m S-SW 0,00 h 0 W/m 10,7 km/h (2 Bft)
19.12.2010 05:00 -5,4 C 88 % 1002,1 hPa 0,0 l/m SW 0,00 h 0 W/m 14,9 km/h (3 Bft)
19.12.2010 06:00 -4,8 C 92 % 1002,6 hPa 0,0 l/m S-SW 0,00 h 0 W/m 16,4 km/h (3 Bft)
19.12.2010 07:00 -4,6 C 93 % 1002,9 hPa 0,0 l/m S-SW 0,00 h 0 W/m 12,6 km/h (3 Bft)
19.12.2010 08:00 -4,0 C 94 % 1002,9 hPa 0,2 l/m SW 0,00 h 16 W/m 10,9 km/h (2 Bft)
19.12.2010 09:00 -2,8 C 88 % 1002,9 hPa 0,0 l/m SW 0,00 h 42 W/m 12,2 km/h (2 Bft)
19.12.2010 10:00 -1,2 C 78 % 1002,6 hPa 0,2 l/m SW 0,08 h 95 W/m 12,8 km/h (3 Bft)
19.12.2010 11:00 0,1 C 75 % 1001,7 hPa 0,0 l/m S-SW 0,08 h 119 W/m 8,3 km/h (2 Bft)
19.12.2010 12:00 0,8 C 75 % 1000,8 hPa 0,0 l/m S-SW 0,33 h 163 W/m 3,6 km/h (1 Bft)
19.12.2010 13:00 2,1 C 71 % 1000,0 hPa 0,0 l/m S-SW 0,25 h 139 W/m 3,5 km/h (1 Bft)
19.12.2010 14:00 1,9 C 74 % 999,9 hPa 0,0 l/m SW 0,00 h 57 W/m 2,7 km/h (1 Bft)
19.12.2010 15:00 1,7 C 76 % 999,7 hPa 0,0 l/m SW 0,17 h 41 W/m 11,0 km/h (2 Bft)
19.12.2010 16:00 1,5 C 79 % 999,1 hPa 0,0 l/m SW 0,00 h 14 W/m 8,7 km/h (2 Bft)
19.12.2010 17:00 1,7 C 79 % 998,8 hPa 0,0 l/m W-SW 0,00 h 0 W/m 14,8 km/h (3 Bft)
19.12.2010 18:00 2,5 C 74 % 998,5 hPa 0,0 l/m S-SW 0,00 h 0 W/m 13,5 km/h (3 Bft)
19.12.2010 19:00 1,1 C 80 % 998,1 hPa 0,0 l/m W-SW 0,00 h 0 W/m 11,3 km/h (2 Bft)
19.12.2010 20:00 1,8 C 75 % 998,0 hPa 0,0 l/m S-SW 0,00 h 0 W/m 16,4 km/h (3 Bft)
19.12.2010 21:00 0,5 C 81 % 998,1 hPa 0,0 l/m SW 0,00 h 0 W/m 14,1 km/h (3 Bft)
19.12.2010 22:00 1,8 C 79 % 998,2 hPa 0,0 l/m W-SW 0,00 h 0 W/m 27,1 km/h (4 Bft)
19.12.2010 23:00 4,0 C 75 % 998,8 hPa 0,0 l/m W 0,00 h 0 W/m 30,4 km/h (5 Bft)
Min-Datum _ 16.12.10 13.12.10 17.12.10 - - - - 13.12.10
_ Min-Zeit 08:15 14:10 07:55 - - - - 16:50
Minimum _ -10,1 C 68 % 991,3 hPa - - - - 0,0 km/h (0 Bft)
Max-Datum _ 19.12.10 17.12.10 14.12.10 17.12.10 - 13.12.10 19.12.10 19.12.10
_ Max-Zeit 23:35 05:40 21:30 10:05 - 10:20 13:05 22:55
Maximum _ 4,4 C 97 % 1027,7 hPa 0,8 l/m - 0,08 h 429 W/m 43,5 km/h
SW (6 Bft)
Durchschnitt _ -4,8 C 87 % 1011,8 hPa #8,0 l/m SW #6:20 h 58 W/m 8,6 km/h (2 Bft)